The Dalles, WA

10:17 AM PST on December 09, 2019 (GMT -0800)
Columbia Gorge Regional-The Dalles

Weather History for KDLS - October, 2019

Change the Weather History Date:

Wednesday, October 16, 2019

  Actual Average Record
Temperature  
Mean Temperature 50 °F -  
Max Temperature 57 °F 67 °F 80 °F (1963)
Min Temperature 44 °F 42 °F 28 °F (1999)
Degree Days  
Heating Degree Days 14    
Moisture  
Dew Point 45 °F    
Average Humidity 79    
Maximum Humidity 93    
Minimum Humidity 62    
Precipitation  
Precipitation 0.04 in - - ()
Sea Level Pressure  
Sea Level Pressure 29.82 in    
Wind  
Wind Speed 2 mph (West)    
Max Wind Speed 6 mph    
Max Gust Speed -    
Visibility 10 miles    
Events Rain    
Averages and records for this station are not official NWS values.
T = Trace of Precipitation, MM = Missing Value Source: NWS Daily Summary

Daily Weather History Graph

Daily Weather History Graph

Search for Another Location

Airport or City:

Astronomy

Oct. 16, 2019 Rise Set
Actual Time 7:22 AM PDT 6:17 PM PDT
Civil Twilight 6:52 AM PDT 6:47 PM PDT
Nautical Twilight 6:17 AM PDT 7:21 PM PDT
Astronomical Twilight 5:43 AM PDT 7:56 PM PDT
Moon 8:06 PM PDT (10/16) 10:04 AM PDT (10/16)
Length of Visible Light 11h 55m
Length of Day
10h 55m
Waning Gibbous, 92% of the Moon is Illuminated
Oct 16
Waning Gibbous
Oct 21
Last Quarter
Oct 27
New
Nov 4
First Quarter
Nov 12
Full

Hourly Weather History & Observations

Time (PDT) Temp. Windchill Dew Point Humidity Pressure Visibility Wind Dir Wind Speed Gust Speed Precip Events Conditions
12:53 AM 48.0 °F - 41.0 °F 77% 29.95 in 10.0 mi Calm Calm - N/A   Clear
1:53 AM 48.0 °F - 41.0 °F 77% 29.93 in 10.0 mi South 4.6 mph - N/A   Clear
2:53 AM 46.9 °F - 41.0 °F 80% 29.92 in 10.0 mi ESE 4.6 mph - N/A   Clear
3:53 AM 48.0 °F - 41.0 °F 77% 29.90 in 10.0 mi South 3.5 mph - N/A   Partly Cloudy
4:53 AM 48.0 °F - 41.0 °F 77% 29.89 in 10.0 mi Calm Calm - N/A   Clear
5:53 AM 48.0 °F - 41.0 °F 77% 29.89 in 10.0 mi SW 4.6 mph - N/A   Clear
6:53 AM 44.1 °F 41.5 °F 39.9 °F 85% 29.89 in 10.0 mi NNW 4.6 mph - N/A   Clear
7:53 AM 46.9 °F - 42.1 °F 83% 29.88 in 10.0 mi Calm Calm - N/A   Clear
8:53 AM 48.9 °F - 42.1 °F 77% 29.88 in 10.0 mi Calm Calm - N/A   Clear
9:53 AM 51.1 °F - 42.1 °F 71% 29.87 in 10.0 mi Calm Calm - N/A   Mostly Cloudy
10:53 AM 54.0 °F - 42.1 °F 64% 29.86 in 10.0 mi Calm Calm - N/A   Mostly Cloudy
11:53 AM 55.0 °F - 44.1 °F 67% 29.85 in 10.0 mi Calm Calm - 0.00 in   Overcast
12:53 PM 55.9 °F - 43.0 °F 62% 29.81 in 10.0 mi Variable 3.5 mph - N/A   Overcast
1:53 PM 57.0 °F - 45.0 °F 64% 29.80 in 10.0 mi North 4.6 mph - 0.00 in   Overcast
2:53 PM 54.0 °F - 48.0 °F 80% 29.78 in 9.0 mi WNW 3.5 mph - 0.02 in Rain Light Rain
3:53 PM 54.0 °F - 48.9 °F 83% 29.76 in 10.0 mi NW 3.5 mph - 0.01 in   Overcast
4:53 PM 54.0 °F - 48.9 °F 83% 29.76 in 10.0 mi Calm Calm - 0.01 in   Overcast
5:53 PM 53.1 °F - 48.9 °F 86% 29.74 in 10.0 mi Calm Calm - 0.00 in   Mostly Cloudy
6:53 PM 52.0 °F - 48.9 °F 89% 29.71 in 10.0 mi Calm Calm - N/A   Partly Cloudy
7:53 PM 52.0 °F - 48.9 °F 89% 29.71 in 9.0 mi Calm Calm - N/A   Overcast
8:53 PM 52.0 °F - 50.0 °F 93% 29.73 in 5.0 mi SW 5.8 mph - N/A   Overcast
10:53 PM 52.0 °F - 48.9 °F 89% 29.73 in 9.0 mi Calm Calm - N/A   Scattered Clouds
11:53 PM 53.1 °F - 48.9 °F 86% 29.73 in 9.0 mi NW 5.8 mph - N/A   Mostly Cloudy